contact:dominique.lefevre@mio.osupytheas.fr, maurice.libes@osupytheas.fr, didier.mallarino@osupytheas.fr
Project:EMSO http://www.emso-fr.org/EMSO-France
Depth: 2436.0 m
Title:EMSO Ligure Ouest : Data MII capteur MICROCAT
DateTime_Computer,Latitude,Longitude,Temperature,Conductivity,Pressure,DateTime_Instrument
DateTime_Computer,Latitude,Longitude,degC,S m-1,dbar,DateTime_Instrument
2022-01-18T00:02:44Z,42.805,6.029,13.2997,4.60026,2470.04,2022-1-18T02:04:16Z
2022-01-18T00:05:47Z,42.805,6.029,13.2999,4.60026,2470.077,2022-1-18T02:07:19Z
2022-01-18T00:08:51Z,42.805,6.029,13.3000,4.60025,2470.053,2022-1-18T02:10:22Z
2022-01-18T00:11:54Z,42.805,6.029,13.2997,4.60026,2470.063,2022-1-18T02:13:25Z
2022-01-18T00:14:57Z,42.805,6.029,13.2998,4.60026,2470.077,2022-1-18T02:16:28Z
2022-01-18T00:18:00Z,42.805,6.029,13.2999,4.60027,2470.063,2022-1-18T02:19:31Z
2022-01-18T00:21:03Z,42.805,6.029,13.2999,4.60026,2470.053,2022-1-18T02:22:34Z
2022-01-18T00:24:06Z,42.805,6.029,13.3005,4.60025,2470.04,2022-1-18T02:25:37Z
2022-01-18T00:27:09Z,42.805,6.029,13.2999,4.60026,2470.04,2022-1-18T02:28:40Z
2022-01-18T00:30:12Z,42.805,6.029,13.2999,4.60027,2470.03,2022-1-18T02:31:44Z
2022-01-18T00:33:15Z,42.805,6.029,13.2996,4.60028,2470.077,2022-1-18T02:34:47Z
2022-01-18T00:36:19Z,42.805,6.029,13.3001,4.60027,2470.03,2022-1-18T02:37:50Z
2022-01-18T00:39:22Z,42.805,6.029,13.2997,4.60026,2470.04,2022-1-18T02:40:53Z
2022-01-18T00:42:25Z,42.805,6.029,13.3000,4.60027,2470.03,2022-1-18T02:43:56Z
2022-01-18T00:45:28Z,42.805,6.029,13.2998,4.60026,2470.063,2022-1-18T02:46:59Z
2022-01-18T00:48:31Z,42.805,6.029,13.3000,4.60025,2470.077,2022-1-18T02:50:02Z
2022-01-18T00:51:34Z,42.805,6.029,13.2997,4.60026,2470.017,2022-1-18T02:53:05Z
2022-01-18T00:54:37Z,42.805,6.029,13.2997,4.60024,2470.017,2022-1-18T02:56:09Z
2022-01-18T00:57:40Z,42.805,6.029,13.3000,4.60025,2470.053,2022-1-18T02:59:12Z
2022-01-18T01:00:44Z,42.805,6.029,13.3001,4.60026,2470.04,2022-1-18T03:02:15Z
2022-01-18T01:03:47Z,42.805,6.029,13.3000,4.60026,2470.1,2022-1-18T03:05:18Z
2022-01-18T01:06:50Z,42.805,6.029,13.3000,4.60026,2470.049,2022-1-18T03:08:21Z
2022-01-18T01:09:53Z,42.805,6.029,13.2999,4.60024,2470.063,2022-1-18T03:11:24Z
2022-01-18T01:12:56Z,42.805,6.029,13.2998,4.60026,2470.053,2022-1-18T03:14:27Z
2022-01-18T01:15:59Z,42.805,6.029,13.2998,4.60026,2470.04,2022-1-18T03:17:30Z
2022-01-18T01:19:02Z,42.805,6.029,13.3000,4.60027,2470.1,2022-1-18T03:20:34Z
2022-01-18T01:22:05Z,42.805,6.029,13.3001,4.60024,2470.04,2022-1-18T03:23:37Z
2022-01-18T01:25:09Z,42.805,6.029,13.3002,4.60024,2470.04,2022-1-18T03:26:40Z
2022-01-18T01:28:12Z,42.805,6.029,13.3002,4.60026,2470.04,2022-1-18T03:29:43Z
2022-01-18T01:31:15Z,42.805,6.029,13.2998,4.60024,2470.04,2022-1-18T03:32:46Z
2022-01-18T01:34:18Z,42.805,6.029,13.3000,4.60026,2470.087,2022-1-18T03:35:49Z
2022-01-18T01:37:21Z,42.805,6.029,13.2998,4.60024,2470.063,2022-1-18T03:38:52Z
2022-01-18T01:40:24Z,42.805,6.029,13.2999,4.60024,2470.04,2022-1-18T03:41:55Z
2022-01-18T01:43:27Z,42.805,6.029,13.3001,4.60024,2470.04,2022-1-18T03:44:59Z
2022-01-18T01:46:30Z,42.805,6.029,13.2997,4.60025,2470.087,2022-1-18T03:48:02Z
2022-01-18T01:49:34Z,42.805,6.029,13.2997,4.60025,2470.04,2022-1-18T03:51:05Z
2022-01-18T01:52:37Z,42.805,6.029,13.2999,4.60025,2470.04,2022-1-18T03:54:08Z
2022-01-18T01:55:40Z,42.805,6.029,13.2997,4.60024,2470.04,2022-1-18T03:57:11Z
2022-01-18T01:58:43Z,42.805,6.029,13.3000,4.60024,2470.017,2022-1-18T04:00:14Z
2022-01-18T02:01:46Z,42.805,6.029,13.2996,4.60023,2470.053,2022-1-18T04:03:17Z
2022-01-18T02:04:49Z,42.805,6.029,13.3001,4.60025,2470.077,2022-1-18T04:06:20Z
2022-01-18T02:07:52Z,42.805,6.029,13.3001,4.60024,2470.04,2022-1-18T04:09:24Z
2022-01-18T02:10:55Z,42.805,6.029,13.3003,4.60024,2470.04,2022-1-18T04:12:27Z
2022-01-18T02:13:59Z,42.805,6.029,13.3001,4.60025,2470.073,2022-1-18T04:15:30Z
2022-01-18T02:17:02Z,42.805,6.029,13.3003,4.60024,2470.04,2022-1-18T04:18:33Z
2022-01-18T02:20:05Z,42.805,6.029,13.3001,4.60024,2470.063,2022-1-18T04:21:36Z
2022-01-18T02:23:08Z,42.805,6.029,13.2998,4.60024,2470.087,2022-1-18T04:24:39Z
2022-01-18T02:26:11Z,42.805,6.029,13.2998,4.60024,2470.063,2022-1-18T04:27:42Z
2022-01-18T02:29:14Z,42.805,6.029,13.2996,4.60024,2470.063,2022-1-18T04:30:45Z
2022-01-18T02:32:17Z,42.805,6.029,13.2996,4.60026,2470.063,2022-1-18T04:33:49Z
2022-01-18T02:35:20Z,42.805,6.029,13.3000,4.60024,2470.063,2022-1-18T04:36:52Z
2022-01-18T02:38:24Z,42.805,6.029,13.2999,4.60024,2470.087,2022-1-18T04:39:55Z
2022-01-18T02:41:27Z,42.805,6.029,13.3000,4.60025,2470.063,2022-1-18T04:42:58Z
2022-01-18T02:44:30Z,42.805,6.029,13.3001,4.60024,2470.04,2022-1-18T04:46:01Z
2022-01-18T02:47:33Z,42.805,6.029,13.2999,4.60024,2470.087,2022-1-18T04:49:04Z
2022-01-18T02:50:36Z,42.805,6.029,13.2998,4.60025,2470.077,2022-1-18T04:52:07Z
2022-01-18T02:53:39Z,42.805,6.029,13.2995,4.60026,2470.1,2022-1-18T04:55:10Z
2022-01-18T02:56:42Z,42.805,6.029,13.2999,4.60025,2470.1,2022-1-18T04:58:13Z
2022-01-18T02:59:45Z,42.805,6.029,13.3000,4.60025,2470.063,2022-1-18T05:01:17Z
2022-01-18T03:02:49Z,42.805,6.029,13.2998,4.60026,2470.087,2022-1-18T05:04:20Z
2022-01-18T03:05:52Z,42.805,6.029,13.3000,4.60025,2470.11,2022-1-18T05:07:23Z
2022-01-18T03:08:55Z,42.805,6.029,13.2998,4.60025,2470.124,2022-1-18T05:10:26Z
2022-01-18T03:11:58Z,42.805,6.029,13.2996,4.60024,2470.1,2022-1-18T05:13:29Z
2022-01-18T03:15:01Z,42.805,6.029,13.2998,4.60025,2470.11,2022-1-18T05:16:32Z
2022-01-18T03:18:04Z,42.805,6.029,13.3000,4.60024,2470.124,2022-1-18T05:19:35Z
2022-01-18T03:21:07Z,42.805,6.029,13.3000,4.60025,2470.11,2022-1-18T05:22:38Z
2022-01-18T03:24:10Z,42.805,6.029,13.2994,4.60025,2470.124,2022-1-18T05:25:42Z
2022-01-18T03:27:14Z,42.805,6.029,13.3001,4.60024,2470.087,2022-1-18T05:28:45Z
2022-01-18T03:30:17Z,42.805,6.029,13.3000,4.60024,2470.133,2022-1-18T05:31:48Z
2022-01-18T03:33:20Z,42.805,6.029,13.2996,4.60025,2470.133,2022-1-18T05:34:51Z
2022-01-18T03:36:23Z,42.805,6.029,13.2998,4.60024,2470.11,2022-1-18T05:37:54Z
2022-01-18T03:39:26Z,42.805,6.029,13.3000,4.60023,2470.133,2022-1-18T05:40:57Z
2022-01-18T03:42:29Z,42.805,6.029,13.3001,4.60024,2470.133,2022-1-18T05:44:00Z
2022-01-18T03:45:32Z,42.805,6.029,13.2996,4.60025,2470.147,2022-1-18T05:47:03Z
2022-01-18T03:48:35Z,42.805,6.029,13.2999,4.60024,2470.133,2022-1-18T05:50:07Z
2022-01-18T03:51:38Z,42.805,6.029,13.2998,4.60024,2470.147,2022-1-18T05:53:10Z
2022-01-18T03:54:42Z,42.805,6.029,13.2999,4.60025,2470.133,2022-1-18T05:56:13Z
2022-01-18T03:57:45Z,42.805,6.029,13.2999,4.60025,2470.133,2022-1-18T05:59:16Z
2022-01-18T04:00:48Z,42.805,6.029,13.3000,4.60024,2470.156,2022-1-18T06:02:19Z
2022-01-18T04:03:51Z,42.805,6.029,13.3003,4.60024,2470.133,2022-1-18T06:05:22Z
2022-01-18T04:06:54Z,42.805,6.029,13.2996,4.60024,2470.156,2022-1-18T06:08:25Z
2022-01-18T04:09:57Z,42.805,6.029,13.2998,4.60024,2470.156,2022-1-18T06:11:28Z
2022-01-18T04:13:00Z,42.805,6.029,13.2999,4.60025,2470.18,2022-1-18T06:14:32Z
2022-01-18T04:16:03Z,42.805,6.029,13.2998,4.60024,2470.18,2022-1-18T06:17:35Z
2022-01-18T04:19:07Z,42.805,6.029,13.2997,4.60023,2470.203,2022-1-18T06:20:38Z
2022-01-18T04:22:10Z,42.805,6.029,13.3001,4.60024,2470.166,2022-1-18T06:23:41Z
2022-01-18T04:25:13Z,42.805,6.029,13.3000,4.60024,2470.18,2022-1-18T06:26:44Z
2022-01-18T04:28:16Z,42.805,6.029,13.2999,4.60024,2470.194,2022-1-18T06:29:47Z
2022-01-18T04:31:19Z,42.805,6.029,13.3000,4.60024,2470.18,2022-1-18T06:32:50Z
2022-01-18T04:34:22Z,42.805,6.029,13.2998,4.60024,2470.203,2022-1-18T06:35:53Z
2022-01-18T04:37:25Z,42.805,6.029,13.3000,4.60024,2470.217,2022-1-18T06:38:57Z
2022-01-18T04:40:28Z,42.805,6.029,13.2996,4.60026,2470.217,2022-1-18T06:42:00Z
2022-01-18T04:43:32Z,42.805,6.029,13.2998,4.60024,2470.227,2022-1-18T06:45:03Z
2022-01-18T04:46:35Z,42.805,6.029,13.3000,4.60024,2470.18,2022-1-18T06:48:06Z
2022-01-18T04:49:38Z,42.805,6.029,13.3001,4.60024,2470.227,2022-1-18T06:51:09Z
2022-01-18T04:52:41Z,42.805,6.029,13.3000,4.60026,2470.24,2022-1-18T06:54:12Z
2022-01-18T04:55:44Z,42.805,6.029,13.2999,4.60025,2470.227,2022-1-18T06:57:15Z
2022-01-18T04:58:47Z,42.805,6.029,13.3000,4.60025,2470.203,2022-1-18T07:00:18Z
2022-01-18T05:01:50Z,42.805,6.029,13.2995,4.60025,2470.203,2022-1-18T07:03:21Z
2022-01-18T05:04:53Z,42.805,6.029,13.3000,4.60024,2470.203,2022-1-18T07:06:25Z
2022-01-18T05:07:57Z,42.805,6.029,13.3001,4.60026,2470.25,2022-1-18T07:09:28Z
2022-01-18T05:11:00Z,42.805,6.029,13.2999,4.60024,2470.25,2022-1-18T07:12:31Z
2022-01-18T05:14:03Z,42.805,6.029,13.2999,4.60025,2470.227,2022-1-18T07:15:34Z
2022-01-18T05:17:06Z,42.805,6.029,13.3000,4.60024,2470.24,2022-1-18T07:18:37Z
2022-01-18T05:20:09Z,42.805,6.029,13.3000,4.60024,2470.287,2022-1-18T07:21:40Z
2022-01-18T05:23:12Z,42.805,6.029,13.2998,4.60026,2470.264,2022-1-18T07:24:43Z
2022-01-18T05:26:15Z,42.805,6.029,13.3000,4.60024,2470.227,2022-1-18T07:27:47Z
2022-01-18T05:29:18Z,42.805,6.029,13.2998,4.60025,2470.287,2022-1-18T07:30:50Z
2022-01-18T05:32:22Z,42.805,6.029,13.3001,4.60025,2470.273,2022-1-18T07:33:53Z
2022-01-18T05:35:25Z,42.805,6.029,13.3001,4.60026,2470.273,2022-1-18T07:36:56Z
2022-01-18T05:38:28Z,42.805,6.029,13.3001,4.60026,2470.273,2022-1-18T07:39:59Z
2022-01-18T05:41:31Z,42.805,6.029,13.2998,4.60025,2470.297,2022-1-18T07:43:02Z
2022-01-18T05:44:34Z,42.805,6.029,13.3000,4.60025,2470.334,2022-1-18T07:46:05Z
2022-01-18T05:47:37Z,42.805,6.029,13.3002,4.60025,2470.32,2022-1-18T07:49:08Z
2022-01-18T05:50:40Z,42.805,6.029,13.3002,4.60028,2470.31,2022-1-18T07:52:11Z
2022-01-18T05:53:43Z,42.805,6.029,13.3000,4.60026,2470.297,2022-1-18T07:55:15Z
2022-01-18T05:56:47Z,42.805,6.029,13.3000,4.60025,2470.32,2022-1-18T07:58:18Z
2022-01-18T05:59:50Z,42.805,6.029,13.3000,4.60026,2470.32,2022-1-18T08:01:21Z
2022-01-18T06:02:53Z,42.805,6.029,13.2998,4.60026,2470.297,2022-1-18T08:04:24Z
2022-01-18T06:05:56Z,42.805,6.029,13.3000,4.60025,2470.31,2022-1-18T08:07:27Z
2022-01-18T06:08:59Z,42.805,6.029,13.3000,4.60026,2470.343,2022-1-18T08:10:30Z
2022-01-18T06:12:02Z,42.805,6.029,13.3004,4.60026,2470.334,2022-1-18T08:13:33Z
2022-01-18T06:15:05Z,42.805,6.029,13.3004,4.60026,2470.343,2022-1-18T08:16:36Z
2022-01-18T06:18:08Z,42.805,6.029,13.2999,4.60026,2470.343,2022-1-18T08:19:40Z
2022-01-18T06:21:11Z,42.805,6.029,13.3001,4.60027,2470.366,2022-1-18T08:22:43Z
2022-01-18T06:24:15Z,42.805,6.029,13.3001,4.60026,2470.357,2022-1-18T08:25:46Z
2022-01-18T06:27:18Z,42.805,6.029,13.2998,4.60026,2470.357,2022-1-18T08:28:49Z
2022-01-18T06:30:21Z,42.805,6.029,13.3000,4.60025,2470.343,2022-1-18T08:31:52Z
2022-01-18T06:33:24Z,42.805,6.029,13.3000,4.60027,2470.32,2022-1-18T08:34:55Z
2022-01-18T06:36:27Z,42.805,6.029,13.3000,4.60026,2470.343,2022-1-18T08:37:58Z
2022-01-18T06:39:30Z,42.805,6.029,13.3002,4.60028,2470.343,2022-1-18T08:41:01Z
2022-01-18T06:42:33Z,42.805,6.029,13.3003,4.60025,2470.357,2022-1-18T08:44:05Z
2022-01-18T06:45:36Z,42.805,6.029,13.2999,4.60026,2470.366,2022-1-18T08:47:08Z
2022-01-18T06:48:40Z,42.805,6.029,13.3000,4.60025,2470.39,2022-1-18T08:50:11Z
2022-01-18T06:51:43Z,42.805,6.029,13.3002,4.60026,2470.366,2022-1-18T08:53:14Z
2022-01-18T06:54:46Z,42.805,6.029,13.3001,4.60026,2470.366,2022-1-18T08:56:17Z
2022-01-18T06:57:49Z,42.805,6.029,13.3001,4.60026,2470.404,2022-1-18T08:59:20Z
2022-01-18T07:00:52Z,42.805,6.029,13.2997,4.60026,2470.366,2022-1-18T09:02:23Z
2022-01-18T07:03:55Z,42.805,6.029,13.3004,4.60026,2470.357,2022-1-18T09:05:26Z
2022-01-18T07:06:58Z,42.805,6.029,13.3000,4.60027,2470.343,2022-1-18T09:08:30Z
2022-01-18T07:10:01Z,42.805,6.029,13.3000,4.60026,2470.404,2022-1-18T09:11:33Z
2022-01-18T07:13:05Z,42.805,6.029,13.2996,4.60026,2470.38,2022-1-18T09:14:36Z
2022-01-18T07:16:08Z,42.805,6.029,13.3004,4.60026,2470.376,2022-1-18T09:17:39Z
2022-01-18T07:19:11Z,42.805,6.029,13.3003,4.60026,2470.366,2022-1-18T09:20:42Z
2022-01-18T07:22:14Z,42.805,6.029,13.2996,4.60028,2470.404,2022-1-18T09:23:45Z
2022-01-18T07:25:17Z,42.805,6.029,13.2998,4.60026,2470.366,2022-1-18T09:26:48Z
2022-01-18T07:28:20Z,42.805,6.029,13.2996,4.60026,2470.366,2022-1-18T09:29:51Z
2022-01-18T07:31:23Z,42.805,6.029,13.3003,4.60026,2470.366,2022-1-18T09:32:55Z
2022-01-18T07:34:26Z,42.805,6.029,13.3002,4.60026,2470.366,2022-1-18T09:35:58Z
2022-01-18T07:37:30Z,42.805,6.029,13.2998,4.60026,2470.404,2022-1-18T09:39:01Z
2022-01-18T07:40:33Z,42.805,6.029,13.3006,4.60026,2470.39,2022-1-18T09:42:04Z
2022-01-18T07:43:36Z,42.805,6.029,13.2997,4.60026,2470.38,2022-1-18T09:45:07Z
2022-01-18T07:46:39Z,42.805,6.029,13.3004,4.60026,2470.39,2022-1-18T09:48:10Z
2022-01-18T07:49:42Z,42.805,6.029,13.2999,4.60026,2470.413,2022-1-18T09:51:13Z
2022-01-18T07:52:45Z,42.805,6.029,13.3000,4.60028,2470.413,2022-1-18T09:54:16Z
2022-01-18T07:55:48Z,42.805,6.029,13.2997,4.60029,2470.404,2022-1-18T09:57:20Z
2022-01-18T07:58:51Z,42.805,6.029,13.2999,4.60026,2470.404,2022-1-18T10:00:23Z
2022-01-18T08:01:55Z,42.805,6.029,13.3000,4.60026,2470.39,2022-1-18T10:03:26Z
2022-01-18T08:04:58Z,42.805,6.029,13.3004,4.60029,2470.413,2022-1-18T10:06:29Z
2022-01-18T08:08:01Z,42.805,6.029,13.3000,4.60026,2470.404,2022-1-18T10:09:32Z
2022-01-18T08:11:04Z,42.805,6.029,13.3000,4.60026,2470.45,2022-1-18T10:12:35Z
2022-01-18T08:14:07Z,42.805,6.029,13.3004,4.60026,2470.413,2022-1-18T10:15:38Z
2022-01-18T08:17:10Z,42.805,6.029,13.3000,4.60028,2470.413,2022-1-18T10:18:41Z
2022-01-18T08:20:13Z,42.805,6.029,13.3000,4.60026,2470.39,2022-1-18T10:21:45Z
2022-01-18T08:23:16Z,42.805,6.029,13.3000,4.60033,2470.39,2022-1-18T10:24:48Z
2022-01-18T08:26:20Z,42.805,6.029,13.3000,4.60028,2470.413,2022-1-18T10:27:51Z
2022-01-18T08:29:23Z,42.805,6.029,13.3004,4.60028,2470.413,2022-1-18T10:30:54Z
2022-01-18T08:32:26Z,42.805,6.029,13.3000,4.60031,2470.404,2022-1-18T10:33:57Z
2022-01-18T08:35:29Z,42.805,6.029,13.3000,4.60027,2470.437,2022-1-18T10:37:00Z
2022-01-18T08:38:32Z,42.805,6.029,13.3002,4.60026,2470.39,2022-1-18T10:40:03Z
2022-01-18T08:41:35Z,42.805,6.029,13.2996,4.60025,2470.366,2022-1-18T10:43:06Z
2022-01-18T08:44:38Z,42.805,6.029,13.3000,4.60026,2470.39,2022-1-18T10:46:10Z
2022-01-18T08:47:41Z,42.805,6.029,13.3004,4.60026,2470.427,2022-1-18T10:49:13Z
2022-01-18T08:50:45Z,42.805,6.029,13.2998,4.60025,2470.427,2022-1-18T10:52:16Z
2022-01-18T08:53:48Z,42.805,6.029,13.3002,4.60026,2470.39,2022-1-18T10:55:19Z
2022-01-18T08:56:51Z,42.805,6.029,13.2998,4.60027,2470.413,2022-1-18T10:58:22Z
2022-01-18T08:59:54Z,42.805,6.029,13.2998,4.60031,2470.45,2022-1-18T11:01:25Z
2022-01-18T09:02:57Z,42.805,6.029,13.3002,4.60026,2470.413,2022-1-18T11:04:28Z
2022-01-18T09:06:00Z,42.805,6.029,13.3009,4.60026,2470.45,2022-1-18T11:07:31Z
2022-01-18T09:09:03Z,42.805,6.029,13.3001,4.60029,2470.39,2022-1-18T11:10:35Z
2022-01-18T09:12:06Z,42.805,6.029,13.3002,4.60031,2470.413,2022-1-18T11:13:38Z
2022-01-18T09:15:10Z,42.805,6.029,13.3004,4.60031,2470.413,2022-1-18T11:16:41Z
2022-01-18T09:18:13Z,42.805,6.029,13.2998,4.60026,2470.437,2022-1-18T11:19:44Z
2022-01-18T09:21:16Z,42.805,6.029,13.3003,4.60033,2470.39,2022-1-18T11:22:47Z
2022-01-18T09:24:19Z,42.805,6.029,13.3000,4.60026,2470.45,2022-1-18T11:25:50Z
2022-01-18T09:27:22Z,42.805,6.029,13.3000,4.60028,2470.413,2022-1-18T11:28:53Z
2022-01-18T09:30:25Z,42.805,6.029,13.3006,4.60026,2470.45,2022-1-18T11:31:57Z
2022-01-18T09:33:28Z,42.805,6.029,13.2998,4.60029,2470.427,2022-1-18T11:35:00Z
2022-01-18T09:36:32Z,42.805,6.029,13.2998,4.60030,2470.427,2022-1-18T11:38:03Z
2022-01-18T09:39:35Z,42.805,6.029,13.3000,4.60029,2470.413,2022-1-18T11:41:06Z
2022-01-18T09:42:38Z,42.805,6.029,13.3003,4.60026,2470.437,2022-1-18T11:44:09Z
2022-01-18T09:45:41Z,42.805,6.029,13.3000,4.60030,2470.413,2022-1-18T11:47:12Z
2022-01-18T09:48:44Z,42.805,6.029,13.3004,4.60026,2470.437,2022-1-18T11:50:15Z
2022-01-18T09:51:47Z,42.805,6.029,13.2998,4.60027,2470.404,2022-1-18T11:53:18Z
2022-01-18T09:54:50Z,42.805,6.029,13.3004,4.60026,2470.404,2022-1-18T11:56:22Z
2022-01-18T09:57:53Z,42.805,6.029,13.3000,4.60028,2470.413,2022-1-18T11:59:25Z
2022-01-18T10:00:57Z,42.805,6.029,13.3003,4.60027,2470.437,2022-1-18T12:02:28Z
2022-01-18T10:04:00Z,42.805,6.029,13.3001,4.60033,2470.427,2022-1-18T12:05:31Z
2022-01-18T10:07:03Z,42.805,6.029,13.3004,4.60026,2470.437,2022-1-18T12:08:34Z
2022-01-18T10:10:06Z,42.805,6.029,13.2998,4.60027,2470.39,2022-1-18T12:11:37Z
2022-01-18T10:13:09Z,42.805,6.029,13.3004,4.60029,2470.343,2022-1-18T12:14:40Z
2022-01-18T10:16:12Z,42.805,6.029,13.3003,4.60027,2470.427,2022-1-18T12:17:43Z
2022-01-18T10:19:15Z,42.805,6.029,13.3002,4.60026,2470.39,2022-1-18T12:20:47Z
2022-01-18T10:22:18Z,42.805,6.029,13.3000,4.60027,2470.427,2022-1-18T12:23:50Z
2022-01-18T10:25:22Z,42.805,6.029,13.2996,4.60026,2470.39,2022-1-18T12:26:53Z
2022-01-18T10:28:25Z,42.805,6.029,13.3000,4.60027,2470.39,2022-1-18T12:29:56Z
2022-01-18T10:31:28Z,42.805,6.029,13.2999,4.60026,2470.38,2022-1-18T12:32:59Z
2022-01-18T10:34:31Z,42.805,6.029,13.2998,4.60029,2470.427,2022-1-18T12:36:02Z
2022-01-18T10:37:34Z,42.805,6.029,13.3002,4.60028,2470.404,2022-1-18T12:39:05Z
2022-01-18T10:40:37Z,42.805,6.029,13.3004,4.60032,2470.39,2022-1-18T12:42:08Z
2022-01-18T10:43:40Z,42.805,6.029,13.2998,4.60027,2470.39,2022-1-18T12:45:12Z
2022-01-18T10:46:43Z,42.805,6.029,13.3000,4.60027,2470.39,2022-1-18T12:48:15Z
2022-01-18T10:49:47Z,42.805,6.029,13.2998,4.60032,2470.39,2022-1-18T12:51:18Z
2022-01-18T10:52:50Z,42.805,6.029,13.3003,4.60027,2470.39,2022-1-18T12:54:21Z
2022-01-18T10:55:53Z,42.805,6.029,13.2998,4.60027,2470.39,2022-1-18T12:57:24Z
2022-01-18T10:58:56Z,42.805,6.029,13.2999,4.60028,2470.413,2022-1-18T13:00:27Z
2022-01-18T11:01:59Z,42.805,6.029,13.3002,4.60026,2470.38,2022-1-18T13:03:30Z
2022-01-18T11:05:02Z,42.805,6.029,13.2998,4.60026,2470.38,2022-1-18T13:06:33Z
2022-01-18T11:08:05Z,42.805,6.029,13.3003,4.60027,2470.39,2022-1-18T13:09:37Z
2022-01-18T11:11:09Z,42.805,6.029,13.2996,4.60026,2470.39,2022-1-18T13:12:40Z
2022-01-18T11:14:12Z,42.805,6.029,13.2996,4.60029,2470.39,2022-1-18T13:15:43Z
2022-01-18T11:17:15Z,42.805,6.029,13.3000,4.60026,2470.413,2022-1-18T13:18:46Z
2022-01-18T11:20:18Z,42.805,6.029,13.2998,4.60027,2470.39,2022-1-18T13:21:49Z
2022-01-18T11:23:21Z,42.805,6.029,13.3002,4.60026,2470.404,2022-1-18T13:24:52Z
2022-01-18T11:26:24Z,42.805,6.029,13.2999,4.60026,2470.357,2022-1-18T13:27:55Z
2022-01-18T11:29:27Z,42.805,6.029,13.3002,4.60028,2470.38,2022-1-18T13:30:59Z
2022-01-18T11:32:30Z,42.805,6.029,13.3001,4.60027,2470.357,2022-1-18T13:34:02Z
2022-01-18T11:35:34Z,42.805,6.029,13.2998,4.60026,2470.343,2022-1-18T13:37:05Z
2022-01-18T11:38:37Z,42.805,6.029,13.3001,4.60029,2470.366,2022-1-18T13:40:08Z
2022-01-18T11:41:40Z,42.805,6.029,13.2999,4.60030,2470.413,2022-1-18T13:43:11Z
2022-01-18T11:44:43Z,42.805,6.029,13.3002,4.60026,2470.366,2022-1-18T13:46:14Z
2022-01-18T11:47:46Z,42.805,6.029,13.3003,4.60026,2470.366,2022-1-18T13:49:17Z
2022-01-18T11:50:49Z,42.805,6.029,13.3002,4.60026,2470.357,2022-1-18T13:52:20Z
2022-01-18T11:53:52Z,42.805,6.029,13.3000,4.60026,2470.343,2022-1-18T13:55:24Z
2022-01-18T11:56:55Z,42.805,6.029,13.2999,4.60029,2470.38,2022-1-18T13:58:27Z
2022-01-18T11:59:59Z,42.805,6.029,13.2998,4.60028,2470.38,2022-1-18T14:01:30Z
2022-01-18T12:03:02Z,42.805,6.029,13.3001,4.60027,2470.343,2022-1-18T14:04:33Z
2022-01-18T12:06:05Z,42.805,6.029,13.3000,4.60026,2470.39,2022-1-18T14:07:36Z
2022-01-18T12:09:08Z,42.805,6.029,13.3003,4.60027,2470.343,2022-1-18T14:10:39Z
2022-01-18T12:12:11Z,42.805,6.029,13.3001,4.60026,2470.357,2022-1-18T14:13:42Z
2022-01-18T12:15:14Z,42.805,6.029,13.3000,4.60026,2470.366,2022-1-18T14:16:45Z
2022-01-18T12:18:17Z,42.805,6.029,13.3000,4.60026,2470.343,2022-1-18T14:19:49Z
2022-01-18T12:21:20Z,42.805,6.029,13.2999,4.60028,2470.343,2022-1-18T14:22:52Z
2022-01-18T12:24:24Z,42.805,6.029,13.3000,4.60029,2470.343,2022-1-18T14:25:55Z
2022-01-18T12:27:27Z,42.805,6.029,13.2999,4.60026,2470.33,2022-1-18T14:28:58Z
2022-01-18T12:30:30Z,42.805,6.029,13.2998,4.60027,2470.343,2022-1-18T14:32:01Z
2022-01-18T12:33:33Z,42.805,6.029,13.3000,4.60026,2470.357,2022-1-18T14:35:04Z
2022-01-18T12:36:36Z,42.805,6.029,13.3001,4.60026,2470.343,2022-1-18T14:38:07Z
2022-01-18T12:39:39Z,42.805,6.029,13.3006,4.60028,2470.32,2022-1-18T14:41:10Z
2022-01-18T12:42:42Z,42.805,6.029,13.3003,4.60028,2470.357,2022-1-18T14:44:14Z
2022-01-18T12:45:45Z,42.805,6.029,13.3002,4.60026,2470.343,2022-1-18T14:47:17Z
2022-01-18T12:48:49Z,42.805,6.029,13.3002,4.60027,2470.343,2022-1-18T14:50:20Z
2022-01-18T12:51:52Z,42.805,6.029,13.3000,4.60027,2470.32,2022-1-18T14:53:23Z
2022-01-18T12:54:55Z,42.805,6.029,13.2999,4.60031,2470.343,2022-1-18T14:56:26Z
2022-01-18T12:57:58Z,42.805,6.029,13.3003,4.60026,2470.32,2022-1-18T14:59:29Z
2022-01-18T13:01:01Z,42.805,6.029,13.3000,4.60029,2470.32,2022-1-18T15:02:32Z
2022-01-18T13:04:04Z,42.805,6.029,13.3001,4.60028,2470.366,2022-1-18T15:05:36Z
2022-01-18T13:07:07Z,42.805,6.029,13.3001,4.60026,2470.357,2022-1-18T15:08:39Z
2022-01-18T13:10:11Z,42.805,6.029,13.3003,4.60028,2470.357,2022-1-18T15:11:42Z
2022-01-18T13:13:14Z,42.805,6.029,13.2999,4.60026,2470.32,2022-1-18T15:14:45Z
2022-01-18T13:16:17Z,42.805,6.029,13.3001,4.60026,2470.287,2022-1-18T15:17:48Z
2022-01-18T13:19:20Z,42.805,6.029,13.2998,4.60030,2470.31,2022-1-18T15:20:51Z
2022-01-18T13:22:23Z,42.805,6.029,13.2998,4.60029,2470.32,2022-1-18T15:23:54Z
2022-01-18T13:25:26Z,42.805,6.029,13.3003,4.60028,2470.334,2022-1-18T15:26:57Z
2022-01-18T13:28:29Z,42.805,6.029,13.2998,4.60026,2470.334,2022-1-18T15:30:01Z
2022-01-18T13:31:32Z,42.805,6.029,13.3002,4.60028,2470.334,2022-1-18T15:33:04Z
2022-01-18T13:34:36Z,42.805,6.029,13.3003,4.60027,2470.334,2022-1-18T15:36:07Z
2022-01-18T13:37:39Z,42.805,6.029,13.3000,4.60027,2470.334,2022-1-18T15:39:10Z
2022-01-18T13:40:42Z,42.805,6.029,13.3001,4.60029,2470.297,2022-1-18T15:42:13Z
2022-01-18T13:43:45Z,42.805,6.029,13.2995,4.60026,2470.343,2022-1-18T15:45:16Z
2022-01-18T13:46:48Z,42.805,6.029,13.2998,4.60028,2470.31,2022-1-18T15:48:19Z
2022-01-18T13:49:51Z,42.805,6.029,13.2999,4.60027,2470.357,2022-1-18T15:51:22Z
2022-01-18T13:52:54Z,42.805,6.029,13.3004,4.60028,2470.297,2022-1-18T15:54:26Z
2022-01-18T13:55:57Z,42.805,6.029,13.2998,4.60026,2470.273,2022-1-18T15:57:29Z
2022-01-18T13:59:01Z,42.805,6.029,13.3000,4.60026,2470.273,2022-1-18T16:00:32Z
2022-01-18T14:02:04Z,42.805,6.029,13.3004,4.60029,2470.343,2022-1-18T16:03:35Z
2022-01-18T14:05:07Z,42.805,6.029,13.3002,4.60028,2470.357,2022-1-18T16:06:38Z
2022-01-18T14:08:10Z,42.805,6.029,13.2998,4.60026,2470.297,2022-1-18T16:09:41Z
2022-01-18T14:11:13Z,42.805,6.029,13.3000,4.60030,2470.32,2022-1-18T16:12:44Z
2022-01-18T14:14:16Z,42.805,6.029,13.3000,4.60029,2470.297,2022-1-18T16:15:47Z
2022-01-18T14:17:19Z,42.805,6.029,13.3000,4.60029,2470.297,2022-1-18T16:18:51Z
2022-01-18T14:20:22Z,42.805,6.029,13.3000,4.60027,2470.32,2022-1-18T16:21:54Z
2022-01-18T14:23:26Z,42.805,6.029,13.2998,4.60027,2470.32,2022-1-18T16:24:57Z
2022-01-18T14:26:29Z,42.805,6.029,13.2998,4.60027,2470.273,2022-1-18T16:28:00Z
2022-01-18T14:29:32Z,42.805,6.029,13.2999,4.60026,2470.32,2022-1-18T16:31:03Z
2022-01-18T14:32:35Z,42.805,6.029,13.3001,4.60027,2470.334,2022-1-18T16:34:06Z
2022-01-18T14:35:38Z,42.805,6.029,13.2998,4.60026,2470.343,2022-1-18T16:37:09Z
2022-01-18T14:38:41Z,42.805,6.029,13.2998,4.60025,2470.32,2022-1-18T16:40:13Z
2022-01-18T14:41:44Z,42.805,6.029,13.3001,4.60026,2470.334,2022-1-18T16:43:16Z
2022-01-18T14:44:47Z,42.805,6.029,13.3001,4.60026,2470.287,2022-1-18T16:46:19Z
2022-01-18T14:47:51Z,42.805,6.029,13.2998,4.60026,2470.297,2022-1-18T16:49:22Z
2022-01-18T14:50:54Z,42.805,6.029,13.3001,4.60027,2470.334,2022-1-18T16:52:25Z
2022-01-18T14:53:57Z,42.805,6.029,13.3001,4.60025,2470.32,2022-1-18T16:55:28Z
2022-01-18T14:57:00Z,42.805,6.029,13.3000,4.60027,2470.297,2022-1-18T16:58:31Z
2022-01-18T15:00:03Z,42.805,6.029,13.2998,4.60026,2470.297,2022-1-18T17:01:34Z
2022-01-18T15:03:06Z,42.805,6.029,13.3000,4.60026,2470.334,2022-1-18T17:04:38Z
2022-01-18T15:06:09Z,42.805,6.029,13.3000,4.60027,2470.273,2022-1-18T17:07:41Z
2022-01-18T15:09:12Z,42.805,6.029,13.3001,4.60026,2470.31,2022-1-18T17:10:44Z
2022-01-18T15:12:16Z,42.805,6.029,13.3000,4.60026,2470.32,2022-1-18T17:13:47Z
2022-01-18T15:15:19Z,42.805,6.029,13.2996,4.60025,2470.334,2022-1-18T17:16:50Z